Regional Weather Roundup
Issued by NWS

Home | Current Version | Previous Version | Graphics & Text | Print | Product List | Glossary On
Versions: 1 2 3 4 5 6 7 8 9 10 11 12 13 14 15 16 17 18 19 20 21 22 23 24 25 26 27 28 29 30 31 32 33 34 35 36 37 38 39 40 41 42 43 44 45 46 47 48 49 50
000
ASUS44 KMEG 190110
RWRTN
TENNESSEE HOURLY STATE WEATHER ROUNDUP
NATIONAL WEATHER SERVICE MEMPHIS TN
800 PM CDT SAT APR 18 2015

TNZ002-004-019-021-049-052-054-088>092-190200-
WEST TENNESSEE

CITY           SKY/WX    TMP DP  RH WIND       PRES   REMARKS
MEMPHIS INTL   CLOUDY    69  61  75 S7        29.85S
NWS MEMPHIS      N/A    N/A N/A N/A MISG        N/A
JACKSON        CLOUDY    70  61  73 CALM      29.84S
DYERSBURG      CLOUDY    72  54  53 CALM      29.85S
UNION CITY     MOCLDY    72  32  23 CALM      29.83S
PARIS          PTCLDY    70  61  73 E3        29.85F
LEXINGTON      MOCLDY    70  63  78 SW3       29.85R
SAVANNAH       MOCLDY    70  32  24 CALM      29.87R
$$

TNZ008-025-027-028-033-062-065-066-190200-
NORTH MIDDLE TENNESSEE

CITY           SKY/WX    TMP DP  RH WIND       PRES   REMARKS
NASHVILLE      CLOUDY    66  64  93 CALM      29.88F
CLARKSVILLE    MOCLDY    72  58  61 NE3       29.87S
SMYRNA         CLOUDY    66  65  97 CALM      29.89F
COOKEVILLE     MOCLDY    72  63  73 S5        29.90F
CROSSVILLE     CLOUDY    67  57  70 SE6       29.97R
$$

TNZ061-075-076-078-094-096-097-190200-
SOUTH MIDDLE TENNESSEE

CITY           SKY/WX    TMP DP  RH WIND       PRES   REMARKS
FAYETTEVILLE     N/A     66  61  82 S6        29.90R
TULLAHOMA      CLEAR     72  57  60 CALM      29.91F
WINCHESTER     CLEAR     68  61  77 E3        29.91S
MCMINNVILLE    CLEAR     70  64  83 SE23      29.91F SQUALL
COLUMBIA       CLEAR     70  32  24 SE6       29.86F
SHELBYVILLE    PTCLDY    68  66  94 E3        29.90F
$$

TNZ017-018-042-046-047-190200-
NORTHEAST TENNESSEE

CITY           SKY/WX    TMP DP  RH WIND       PRES   REMARKS
TRI CITIES     CLOUDY    67  59  75 SW3       29.98R
ELIZABETHTON   CLOUDY    64  59  82 NE3       30.00R
$$

TNZ012-013-036-069-073-074-190200-
CENTRAL EAST TENNESSEE

CITY           SKY/WX    TMP DP  RH WIND       PRES   REMARKS
KNOXVILLE      LGT RAIN  67  64  90 CALM      29.94R
OAK RIDGE      LGT RAIN  71  62  73 SW3       29.96R
GATLINBURG     CLOUDY    64  63  94 CALM      29.96R
MORRISTOWN     MOCLDY    64  63  94 SE5       29.99R
$$

TNZ083-085-099-190200-
SOUTHEAST TENNESSEE

CITY           SKY/WX    TMP DP  RH WIND       PRES   REMARKS
CHATTANOOGA    CLOUDY    72  63  73 CALM      29.93R
$$

SKY/WX REPORTED AS FAIR MEANS FEW OR NO CLOUDS BELOW
12 THOUSAND FEET.



USA.gov is the U.S. government's official web portal to all federal, state and local government web resources and services.